Regional Weather Roundup
Issued by NWS Cleveland, OH

Home | Current Version | Previous Version | Text Only | Print | Product List | Glossary Off
Versions: 1 2 3 4 5 6 7 8 9 10 11 12 13 14 15 16 17 18 19 20 21 22 23 24 25 26 27 28 29 30 31 32 33 34 35 36 37 38 39 40 41 42 43 44 45 46 47 48 49 50

000
ASUS41 KCLE 220010
RWRCLE
OHIO REGIONAL WEATHER ROUNDUP
NATIONAL WEATHER SERVICE WILMINGTON, OH
800 PM EDT MON AUG 21 2017

NOTE: "FAIR" INDICATES FEW OR NO CLOUDS BELOW 12,000 FEET WITH NO
SIGNIFICANT WEATHER AND/OR OBSTRUCTIONS TO VISIBILITY.

OHZ001>008-015>018-024>027-034-035-043-044-220100-
   NORTHWEST OHIO

CITY           SKY/WX    TMP DP  RH WIND       PRES   REMARKS
DEFIANCE       FAIR      82  69  64 SW6       30.03R
FINDLAY        FAIR      79  69  71 S12       30.03F
TOLEDO EXPRESS FAIR      82  73  74 SW7       30.01R
TOLEDO EXEC    FAIR      82  75  79 S5        30.02R
LIMA           FAIR      78  68  71 SW8       30.06F
$$

OHZ009>014-019>023-028>033-038-089-220100-
   NORTHEAST OHIO

CITY           SKY/WX    TMP DP  RH WIND       PRES   REMARKS
CLE-HOPKINS    MOCLDY    85  71  63 S7        30.06S HX  90
CLE-LAKEFRONT  FAIR      79  69  71 NE3       30.03F
CUY CO. ARPT   PTCLDY    81  68  65 S7        30.06S
LORAIN-ELYRIA  FAIR      80  68  66 SW7       30.05S
ASHTABULA      FAIR      75  74  96 CALM      30.08S
AKRON-CANTON   FAIR      83  70  64 SW8       30.09S
WOOSTER        FAIR      80  69  69 SW7       30.09R
MANSFIELD      FAIR      80  70  71 SW9       30.09S
YOUNGSTOWN     MOCLDY    77  70  79 NW5       30.09S THUNDER
$$

OHZ042-051>053-060>062-070>072-077>081-220100-
  SOUTHWEST OHIO

CITY           SKY/WX    TMP DP  RH WIND       PRES   REMARKS
CINC-COVINGTON CLOUDY    83  71  67 S3        30.10S
CINC-LUNKEN    FAIR      80  74  81 S5        30.08S
HAMILTON       FAIR      83  71  67 SW5       30.09S
DAYTON         MOCLDY    81  68  64 SW8       30.09F
WRIGHT-PAT AFB FAIR      82  69  65 S8        30.08F
DAYTON GENERAL FAIR      84  66  54 SW7       30.09F
WILMINGTON     FAIR      78  72  81 S6        30.10F
$$

OHZ036-037-039>041-045>050-054>059-063>069-073>076-082>088-220100-
  CENTRAL AND SOUTHEAST OHIO

CITY           SKY/WX    TMP DP  RH WIND       PRES   REMARKS
COLUMBUS       MOCLDY    86  69  56 SW9       30.08F HX  90
OSU AIRPORT    FAIR      83  71  67 S10       30.08F
BOLTON FIELD   FAIR      80  72  76 SW5       30.09F
RICKENBACK AFB FAIR      82  71  71 SW6       30.08S
NEWARK         FAIR      82  71  69 SW3       30.09S
MARION         FAIR      80  71  74 S8        30.07F
LANCASTER      FAIR      82  72  71 SW6       30.10F
ZANESVILLE     FAIR      81  72  74 S5        30.09F
NEW PHILLY     FAIR      81  74  79 S6        30.09F
$$



USA.gov is the U.S. government's official web portal to all federal, state and local government web resources and services.